Des Moines International Airport
Saturday 9:54 PM
Temperature43° (49°/26°)
Dew Point26°
Feels Like41°
Relative Humidity51
%
Visibility10
mi
Pressure1020.7
mb
Wind Direction
Wind Speed3
mph
Precipitation TodayTrace

Last 30 Observations

Time PresWx Temp DP Feels RH% Vsby Pressure Ceiling Direction Speed 1h Precip
9:54 PM 43° 26° 41°51
%
10
mi
1020.7
mb
NNE
30°
3
mph
0.00"
8:54 PM 44° 25° 43°47
%
10
mi
1020.3
mb
ENE
60°
3
mph
0.00"
7:54 PM 46° 25° 44°43
%
10
mi
1020.3
mb
ENE
70°
5
mph
0.00"
6:54 PM 48° 24° 44°39
%
10
mi
1020.3
mb
NE
50°
9
mph
0.00"
5:54 PM 48° 24° 44°39
%
10
mi
1020.3
mb
ENE
60°
9
mph
0.00"
4:54 PM 49° 25° 45°39
%
10
mi
1020.3
mb
E
100°
9
mph
0.00"
3:54 PM 47° 26° 44°44
%
10
mi
1021.0
mb
E
80°
6
mph
0.00"
2:54 PM 45° 26° 40°47
%
10
mi
1022.0
mb
25,000
ft
ENE
70°
9
mph
0.00"
1:54 PM 43° 28° 37°55
%
10
mi
1023.0
mb
ENE
70°
10
mph
0.00"
12:54 PM 38° 27° 32°64
%
10
mi
1024.1
mb
NNE
20°
8
mph
0.00"
11:54 AM 35° 27° 29°72
%
10
mi
1024.7
mb
25,000
ft
NE
40°
8
mph
0.00"
10:59 AM 32° 27° 24°81
%
10
mi
1025.1
mb
25,000
ft
NE
40°
10
mph
0.00"
10:54 AM 32° 26° 23°78
%
10
mi
1025.1
mb
1,100
ft
NNE
30°
11
mph
0.00"
9:54 AM 29° 25° 20°85
%
10
mi
1025.1
mb
1,000
ft
N
350°
9
mph
0.00"
8:54 AM 28° 25° 20°88
%
10
mi
1024.7
mb
900
ft
NNW
340°
8
mph
0.00"
7:54 AM 26° 23° 18°88
%
10
mi
1024.7
mb
800
ft
N
350°
8
mph
0.00"
7:07 AM 26° 23° 16°88
%
10
mi
1024.7
mb
1,000
ft
N
10°
10
mph
0.00"
6:54 AM 26° 23° 18°88
%
10
mi
1024.7
mb
900
ft
N
360°
8
mph
0.00"
6:41 AM 26° 23° 16°88
%
10
mi
1024.4
mb
900
ft
N
360°
11
mph
0.00"
5:54 AM 27° 23° 19°85
%
10
mi
1024.4
mb
1,100
ft
N
360°
7
mph
0.00"
4:54 AM 27° 23° 17°85
%
10
mi
1024.4
mb
1,200
ft
N
350°
10
mph
0.00"
3:54 AM 27° 23° 15°85
%
10
mi
1024.4
mb
1,300
ft
N
350°
15
mph
(G22)
0.00"
2:54 AM 27° 23° 16°85
%
10
mi
1024.4
mb
1,100
ft
NNW
340°
14
mph
0.00"
1:54 AM -SN 28° 24° 17°85
%
10
mi
1024.4
mb
1,200
ft
NNW
340°
15
mph
0.00"
12:54 AM -SN 29° 26° 19°89
%
10
mi
1023.7
mb
1,200
ft
NNW
330°
13
mph
0.00"
11:54 PM 30° 26° 22°85
%
10
mi
1023.7
mb
1,200
ft
NNW
340°
9
mph
0.00"
10:54 PM 30° 26° 22°85
%
10
mi
1023.7
mb
NNW
340°
9
mph
0.00"
9:54 PM 31° 27° 22°85
%
10
mi
1023.7
mb
1,300
ft
NNW
340°
10
mph
0.00"
9:29 PM 31° 27° 23°85
%
10
mi
1023.4
mb
1,300
ft
NNW
340°
8
mph
0.00"
8:54 PM 31° 27° 23°85
%
10
mi
1023.0
mb
1,600
ft
NNW
330°
8
mph
0.00"